QPF
0.00 0.00 0.00 0.00 0.00 0.00 0.00 0.00 0.01 0.01 0.01 0.01 0.01 0.01 0.01 0.00 0.00 0.00 0.00 0.00 0.00 0.01 0.01 0.01 0.01 0.01 0.01 0.01 0.01 0.01 0.01 0.01 0.01 0.00 0.01 0.00 0.00 0.01 0.01 0.02 0.02 0.02 0.02 0.02
0.00 0.00 0.00 0.00 0.00 0.00 0.00 0.00 0.00 0.00 0.00 0.01 0.01 0.00 0.00 0.00 0.00 0.00 0.00 0.00 0.00 0.01 0.01 0.01 0.01 0.01 0.01 0.02 0.01 0.01 0.01 0.01 0.01 0.00 0.00 0.00 0.00 0.00 0.01 0.01 0.02 0.01 0.01 0.01
0.01 0.00 0.00 0.00 0.00 0.00 0.00 0.00 0.00 0.00 0.00 0.00 0.00 0.00 0.00 0.00 0.00 0.00 0.00 0.00 0.00 0.01 0.01 0.01 0.01 0.01 0.01 0.02 0.02 0.01 0.01 0.02 0.01 0.01 0.00 0.01 0.01 0.01 0.01 0.01 0.01 0.01 0.01 0.01
0.01 0.00 0.00 0.00 0.00 0.00 0.00 0.00 0.00 0.00 0.00 0.00 0.00 0.00 0.00 0.00 0.00 0.00 0.00 0.00 0.00 0.01 0.01 0.01 0.01 0.01 0.02 0.02 0.02 0.02 0.02 0.02 0.02 0.01 0.01 0.01 0.01 0.01 0.01 0.01 0.01 0.01 0.00 0.00
0.01 0.00 0.00 0.00 0.00 0.00 0.00 0.00 0.00 0.00 0.00 0.00 0.00 0.00 0.00 0.00 0.00 0.00 0.00 0.00 0.00 0.00 0.01 0.01 0.01 0.01 0.02 0.02 0.03 0.02 0.02 0.02 0.02 0.02 0.01 0.01 0.01 0.01 0.01 0.01 0.01 0.01 0.00 0.00
0.01 0.01 0.00 0.00 0.00 0.00 0.00 0.00 0.00 0.00 0.00 0.00 0.00 0.01 0.00 0.00 0.00 0.00 0.00 0.00 0.01 0.01 0.01 0.01 0.01 0.01 0.02 0.02 0.02 0.02 0.02 0.02 0.02 0.02 0.02 0.02 0.01 0.01 0.01 0.01 0.01 0.01 0.01 0.01
0.01 0.01 0.00 0.00 0.00 0.00 0.00 0.00 0.00 0.00 0.00 0.01 0.01 0.01 0.00 0.00 0.00 0.00 0.00 0.00 0.01 0.01 0.01 0.01 0.01 0.02 0.02 0.02 0.02 0.02 0.02 0.02 0.02 0.02 0.02 0.02 0.01 0.01 0.01 0.01 0.01 0.01 0.01 0.01
0.01 0.01 0.00 0.00 0.00 0.00 0.00 0.00 0.00 0.00 0.00 0.01 0.00 0.00 0.00 0.00 0.00 0.00 0.00 0.00 0.01 0.01 0.01 0.01 0.02 0.02 0.02 0.02 0.02 0.02 0.02 0.02 0.02 0.02 0.02 0.02 0.01 0.01 0.01 0.01 0.02 0.02 0.02 0.01
0.00 0.00 0.00 0.00 0.00 0.00 0.00 0.00 0.00 0.00 0.00 0.01 0.01 0.00 0.00 0.00 0.00 0.00 0.01 0.01 0.01 0.01 0.01 0.01 0.01 0.02 0.02 0.02 0.02 0.02 0.02 0.02 0.02 0.02 0.02 0.02 0.02 0.02 0.02 0.02 0.02 0.03 0.03 0.02
0.00 0.00 0.00 0.00 0.00 0.00 0.00 0.01 0.00 0.01 0.01 0.01 0.01 0.01 0.01 0.00 0.00 0.01 0.01 0.01 0.01 0.01 0.01 0.01 0.01 0.02 0.02 0.02 0.02 0.02 0.02 0.02 0.01 0.02 0.02 0.02 0.02 0.03 0.03 0.03 0.02 0.02 0.02 0.03
0.00 0.00 0.00 0.00 0.00 0.00 0.00 0.00 0.00 0.00 0.00 0.01 0.01 0.01 0.01 0.01 0.01 0.01 0.01 0.01 0.01 0.02 0.01 0.01 0.01 0.01 0.01 0.02 0.02 0.02 0.02 0.01 0.01 0.02 0.02 0.02 0.03 0.03 0.03 0.03 0.02 0.03 0.03 0.03
0.00 0.00 0.00 0.00 0.00 0.00 0.00 0.00 0.00 0.00 0.00 0.00 0.01 0.01 0.01 0.01 0.01 0.01 0.01 0.01 0.01 0.01 0.01 0.01 0.01 0.01 0.01 0.01 0.02 0.02 0.02 0.02 0.02 0.03 0.03 0.03 0.03 0.03 0.03 0.03 0.03 0.03 0.03 0.03
0.00 0.00 0.00 0.00 0.00 0.00 0.00 0.00 0.00 0.00 0.00 0.01 0.01 0.01 0.01 0.01 0.00 0.01 0.01 0.01 0.02 0.02 0.02 0.01 0.01 0.01 0.02 0.02 0.02 0.02 0.02 0.02 0.03 0.03 0.03 0.03 0.02 0.02 0.03 0.03 0.03 0.04 0.03 0.02
0.00 0.00 0.00 0.00 0.00 0.01 0.00 0.00 0.00 0.01 0.01 0.01 0.01 0.01 0.01 0.00 0.00 0.00 0.01 0.01 0.02 0.02 0.02 0.02 0.01 0.02 0.02 0.02 0.02 0.02 0.02 0.02 0.02 0.03 0.03 0.02 0.02 0.02 0.01 0.02 0.02 0.01 0.01 0.01
0.00 0.00 0.00 0.00 0.00 0.00 0.01 0.01 0.01 0.01 0.01 0.01 0.00 0.00 0.00 0.00 0.00 0.01 0.01 0.01 0.01 0.01 0.02 0.02 0.02 0.02 0.02 0.02 0.03 0.02 0.02 0.02 0.02 0.02 0.02 0.02 0.02 0.01 0.01 0.01 0.01 0.01 0.01 0.01
0.00 0.00 0.00 0.00 0.00 0.01 0.01 0.01 0.01 0.01 0.01 0.01 0.00 0.00 0.00 0.01 0.01 0.00 0.00 0.01 0.01 0.01 0.02 0.02 0.02 0.03 0.03 0.03 0.03 0.02 0.02 0.02 0.02 0.02 0.02 0.02 0.01 0.01 0.01 0.01 0.01 0.01 0.01 0.01
0.00 0.00 0.00 0.00 0.00 0.00 0.01 0.01 0.01 0.01 0.01 0.00 0.00 0.00 0.00 0.01 0.00 0.00 0.01 0.01 0.01 0.01 0.01 0.02 0.03 0.03 0.03 0.03 0.02 0.02 0.02 0.02 0.02 0.02 0.02 0.02 0.01 0.01 0.01 0.01 0.01 0.01 0.01 0.01
0.00 0.00 0.00 0.00 0.00 0.01 0.01 0.01 0.01 0.01 0.00 0.00 0.00 0.00 0.01 0.01 0.01 0.01 0.01 0.01 0.01 0.01 0.01 0.02 0.03 0.03 0.03 0.02 0.02 0.02 0.02 0.02 0.01 0.01 0.01 0.01 0.01 0.01 0.01 0.01 0.01 0.01 0.01 0.01
0.00 0.00 0.00 0.00 0.01 0.01 0.01 0.00 0.00 0.00 0.00 0.01 0.01 0.01 0.01 0.01 0.01 0.01 0.01 0.01 0.01 0.01 0.01 0.02 0.02 0.02 0.02 0.03 0.02 0.02 0.02 0.01 0.01 0.01 0.01 0.01 0.01 0.01 0.01 0.01 0.01 0.01 0.01 0.01
0.00 0.00 0.00 0.00 0.00 0.01 0.01 0.00 0.00 0.00 0.00 0.01 0.01 0.01 0.01 0.01 0.01 0.01 0.01 0.01 0.01 0.01 0.01 0.02 0.01 0.01 0.01 0.02 0.02 0.02 0.02 0.02 0.02 0.02 0.01 0.01 0.01 0.01 0.01 0.02 0.02 0.01 0.01 0.01
0.00 0.00 0.00 0.00 0.00 0.00 0.01 0.01 0.01 0.01 0.01 0.01 0.01 0.01 0.01 0.01 0.01 0.01 0.01 0.01 0.01 0.01 0.01 0.01 0.01 0.01 0.01 0.01 0.01 0.01 0.01 0.02 0.02 0.02 0.02 0.02 0.02 0.02 0.02 0.02 0.01 0.01 0.01 0.01
0.01 0.00 0.00 0.00 0.00 0.00 0.01 0.01 0.01 0.01 0.01 0.01 0.01 0.01 0.01 0.01 0.01 0.01 0.01 0.01 0.01 0.01 0.01 0.01 0.01 0.01 0.01 0.01 0.01 0.01 0.01 0.01 0.01 0.01 0.01 0.01 0.02 0.02 0.02 0.01 0.01 0.01 0.01 0.01
0.01 0.00 0.00 0.01 0.01 0.01 0.00 0.01 0.01 0.01 0.01 0.01 0.01 0.01 0.01 0.01 0.01 0.01 0.01 0.01 0.01 0.01 0.01 0.01 0.01 0.01 0.01 0.01 0.01 0.01 0.01 0.01 0.01 0.01 0.01 0.01 0.01 0.01 0.01 0.01 0.01 0.01 0.01 0.01
0.00 0.00 0.01 0.00 0.00 0.00 0.00 0.00 0.01 0.01 0.01 0.01 0.01 0.01 0.01 0.01 0.01 0.01 0.01 0.01 0.01 0.01 0.01 0.01 0.02 0.02 0.01 0.01 0.01 0.01 0.01 0.01 0.01 0.01 0.01 0.01 0.01 0.01 0.01 0.01 0.01 0.01 0.01 0.01
0.01 0.01 0.01 0.01 0.01 0.01 0.01 0.00 0.00 0.00 0.01 0.01 0.01 0.01 0.01 0.02 0.02 0.01 0.01 0.01 0.01 0.01 0.02 0.01 0.01 0.01 0.01 0.01 0.01 0.01 0.01 0.01 0.01 0.01 0.01 0.01 0.01 0.01 0.01 0.01 0.01 0.01 0.01 0.01
0.01 0.01 0.01 0.01 0.01 0.01 0.01 0.00 0.00 0.00 0.01 0.01 0.01 0.01 0.01 0.01 0.01 0.01 0.01 0.01 0.01 0.01 0.01 0.01 0.01 0.01 0.01 0.01 0.01 0.01 0.01 0.01 0.01 0.01 0.01 0.01 0.01 0.01 0.01 0.01 0.01 0.01 0.01 0.01
0.00 0.00 0.00 0.00 0.00 0.00 0.00 0.01 0.01 0.01 0.01 0.01 0.01 0.01 0.01 0.01 0.01 0.01 0.01 0.01 0.01 0.01 0.01 0.01 0.01 0.02 0.01 0.01 0.01 0.01 0.01 0.01 0.01 0.01 0.01 0.01 0.01 0.01 0.01 0.01 0.01 0.01 0.01 0.01
MSLP
1021.37 1021.50 1021.60 1021.65 1021.62 1021.49 1021.22 1020.81 1020.26 1019.61 1018.89 1018.15 1017.44 1016.82 1016.31 1015.94 1015.69 1015.54 1015.45 1015.39 1015.30 1015.16 1014.95 1014.68 1014.34 1013.97 1013.60 1013.25 1012.94 1012.68 1012.48 1012.31 1012.18 1012.04 1011.90 1011.74 1011.54 1011.30 1011.03 1010.72 1010.39 1010.04 1009.68 1009.32
1021.48 1021.47 1021.42 1021.33 1021.18 1020.95 1020.64 1020.23 1019.74 1019.18 1018.57 1017.95 1017.36 1016.83 1016.39 1016.05 1015.81 1015.64 1015.53 1015.43 1015.33 1015.19 1014.99 1014.74 1014.44 1014.10 1013.75 1013.41 1013.09 1012.80 1012.54 1012.30 1012.08 1011.86 1011.63 1011.37 1011.09 1010.77 1010.42 1010.05 1009.66 1009.26 1008.86 1008.47
1021.65 1021.48 1021.26 1021.01 1020.73 1020.42 1020.07 1019.69 1019.27 1018.82 1018.34 1017.87 1017.40 1016.98 1016.60 1016.29 1016.04 1015.84 1015.68 1015.53 1015.38 1015.21 1015.01 1014.77 1014.49 1014.18 1013.85 1013.51 1013.18 1012.85 1012.54 1012.23 1011.93 1011.62 1011.30 1010.95 1010.58 1010.19 1009.77 1009.34 1008.90 1008.46 1008.03 1007.61
1021.88 1021.52 1021.13 1020.72 1020.31 1019.93 1019.56 1019.21 1018.87 1018.54 1018.21 1017.88 1017.54 1017.21 1016.90 1016.60 1016.33 1016.08 1015.86 1015.64 1015.43 1015.22 1014.99 1014.73 1014.46 1014.16 1013.84 1013.51 1013.17 1012.82 1012.46 1012.09 1011.71 1011.32 1010.91 1010.49 1010.04 1009.58 1009.11 1008.63 1008.15 1007.68 1007.22 1006.77
1022.12 1021.59 1021.02 1020.47 1019.95 1019.50 1019.12 1018.81 1018.55 1018.34 1018.14 1017.94 1017.72 1017.47 1017.21 1016.92 1016.62 1016.31 1016.01 1015.72 1015.43 1015.16 1014.89 1014.61 1014.33 1014.04 1013.73 1013.40 1013.05 1012.67 1012.27 1011.86 1011.42 1010.96 1010.49 1010.00 1009.49 1008.98 1008.46 1007.94 1007.43 1006.94 1006.45 1005.99
1022.30 1021.62 1020.92 1020.24 1019.63 1019.14 1018.75 1018.48 1018.30 1018.18 1018.09 1017.99 1017.86 1017.68 1017.45 1017.15 1016.81 1016.45 1016.07 1015.70 1015.34 1015.01 1014.70 1014.40 1014.11 1013.82 1013.51 1013.18 1012.82 1012.43 1012.01 1011.56 1011.08 1010.57 1010.05 1009.50 1008.96 1008.41 1007.86 1007.31 1006.78 1006.27 1005.76 1005.28
1022.36 1021.58 1020.78 1020.02 1019.36 1018.84 1018.46 1018.22 1018.10 1018.05 1018.03 1018.01 1017.93 1017.78 1017.55 1017.24 1016.86 1016.43 1015.99 1015.55 1015.13 1014.75 1014.40 1014.09 1013.80 1013.51 1013.21 1012.89 1012.53 1012.14 1011.70 1011.22 1010.71 1010.17 1009.61 1009.04 1008.46 1007.88 1007.31 1006.76 1006.21 1005.68 1005.16 1004.66
1022.23 1021.41 1020.58 1019.80 1019.13 1018.61 1018.24 1018.03 1017.94 1017.93 1017.95 1017.95 1017.89 1017.74 1017.49 1017.14 1016.71 1016.23 1015.73 1015.24 1014.79 1014.38 1014.02 1013.70 1013.42 1013.14 1012.86 1012.56 1012.21 1011.81 1011.37 1010.88 1010.34 1009.78 1009.20 1008.61 1008.01 1007.42 1006.84 1006.27 1005.72 1005.18 1004.66 1004.14
1021.92 1021.12 1020.31 1019.56 1018.93 1018.44 1018.10 1017.91 1017.84 1017.83 1017.85 1017.83 1017.74 1017.55 1017.25 1016.86 1016.38 1015.86 1015.32 1014.80 1014.33 1013.91 1013.56 1013.26 1013.00 1012.75 1012.49 1012.21 1011.87 1011.49 1011.04 1010.54 1010.00 1009.42 1008.83 1008.22 1007.62 1007.02 1006.44 1005.87 1005.32 1004.78 1004.25 1003.73
1021.46 1020.73 1020.00 1019.33 1018.76 1018.33 1018.03 1017.85 1017.77 1017.74 1017.72 1017.65 1017.49 1017.24 1016.88 1016.43 1015.90 1015.34 1014.78 1014.25 1013.79 1013.39 1013.06 1012.79 1012.56 1012.35 1012.12 1011.86 1011.54 1011.16 1010.72 1010.22 1009.68 1009.10 1008.50 1007.89 1007.28 1006.68 1006.10 1005.54 1005.00 1004.47 1003.95 1003.44
1020.91 1020.29 1019.68 1019.12 1018.64 1018.27 1018.01 1017.85 1017.75 1017.67 1017.58 1017.42 1017.19 1016.85 1016.42 1015.90 1015.33 1014.75 1014.18 1013.66 1013.20 1012.83 1012.54 1012.31 1012.12 1011.94 1011.74 1011.50 1011.21 1010.84 1010.41 1009.92 1009.37 1008.79 1008.20 1007.59 1006.99 1006.41 1005.84 1005.29 1004.76 1004.25 1003.75 1003.27
1020.36 1019.86 1019.37 1018.93 1018.55 1018.26 1018.03 1017.87 1017.74 1017.60 1017.43 1017.18 1016.86 1016.43 1015.92 1015.35 1014.74 1014.14 1013.56 1013.06 1012.63 1012.29 1012.03 1011.84 1011.68 1011.53 1011.36 1011.14 1010.86 1010.51 1010.09 1009.60 1009.07 1008.51 1007.92 1007.34 1006.75 1006.19 1005.65 1005.12 1004.62 1004.14 1003.68 1003.22
1019.86 1019.48 1019.11 1018.77 1018.49 1018.25 1018.06 1017.89 1017.71 1017.52 1017.26 1016.93 1016.52 1016.01 1015.44 1014.82 1014.18 1013.57 1013.00 1012.51 1012.10 1011.79 1011.56 1011.38 1011.25 1011.11 1010.95 1010.75 1010.48 1010.14 1009.74 1009.28 1008.77 1008.23 1007.67 1007.12 1006.57 1006.05 1005.54 1005.05 1004.59 1004.15 1003.72 1003.30
1019.47 1019.17 1018.89 1018.63 1018.41 1018.22 1018.04 1017.85 1017.64 1017.39 1017.06 1016.66 1016.17 1015.61 1014.99 1014.34 1013.70 1013.08 1012.51 1012.03 1011.65 1011.35 1011.12 1010.96 1010.82 1010.69 1010.54 1010.34 1010.08 1009.76 1009.38 1008.94 1008.47 1007.97 1007.46 1006.95 1006.46 1005.98 1005.53 1005.09 1004.67 1004.27 1003.88 1003.50
1019.18 1018.92 1018.69 1018.48 1018.30 1018.12 1017.93 1017.73 1017.48 1017.18 1016.80 1016.35 1015.82 1015.22 1014.58 1013.93 1013.28 1012.67 1012.12 1011.65 1011.26 1010.97 1010.74 1010.56 1010.41 1010.27 1010.11 1009.91 1009.66 1009.36 1009.01 1008.61 1008.19 1007.75 1007.30 1006.86 1006.42 1006.01 1005.61 1005.23 1004.86 1004.50 1004.15 1003.81
1018.95 1018.71 1018.49 1018.29 1018.11 1017.92 1017.72 1017.48 1017.20 1016.86 1016.45 1015.97 1015.42 1014.82 1014.19 1013.55 1012.92 1012.33 1011.80 1011.34 1010.95 1010.64 1010.40 1010.20 1010.03 1009.86 1009.69 1009.49 1009.25 1008.98 1008.66 1008.32 1007.95 1007.58 1007.20 1006.83 1006.47 1006.12 1005.79 1005.46 1005.15 1004.83 1004.52 1004.19
1018.74 1018.49 1018.25 1018.04 1017.83 1017.61 1017.37 1017.10 1016.78 1016.42 1015.99 1015.51 1014.97 1014.39 1013.79 1013.19 1012.59 1012.03 1011.52 1011.07 1010.68 1010.36 1010.09 1009.87 1009.67 1009.49 1009.30 1009.10 1008.88 1008.63 1008.37 1008.08 1007.78 1007.48 1007.17 1006.88 1006.59 1006.31 1006.04 1005.77 1005.50 1005.22 1004.93 1004.63
1018.50 1018.22 1017.96 1017.70 1017.45 1017.19 1016.90 1016.59 1016.24 1015.85 1015.42 1014.95 1014.44 1013.91 1013.35 1012.80 1012.25 1011.73 1011.25 1010.81 1010.43 1010.10 1009.81 1009.56 1009.35 1009.15 1008.96 1008.77 1008.57 1008.36 1008.14 1007.91 1007.68 1007.44 1007.21 1006.98 1006.76 1006.54 1006.32 1006.10 1005.87 1005.63 1005.37 1005.08
1018.20 1017.89 1017.59 1017.30 1016.99 1016.67 1016.34 1015.98 1015.60 1015.20 1014.77 1014.32 1013.84 1013.35 1012.85 1012.35 1011.86 1011.38 1010.94 1010.53 1010.15 1009.82 1009.53 1009.27 1009.05 1008.85 1008.66 1008.49 1008.32 1008.15 1007.98 1007.81 1007.64 1007.46 1007.29 1007.12 1006.95 1006.78 1006.61 1006.42 1006.23 1006.02 1005.78 1005.51
1017.81 1017.49 1017.17 1016.83 1016.48 1016.10 1015.72 1015.32 1014.91 1014.49 1014.06 1013.63 1013.19 1012.74 1012.29 1011.85 1011.41 1010.98 1010.57 1010.19 1009.83 1009.51 1009.23 1008.98 1008.76 1008.57 1008.41 1008.26 1008.13 1008.00 1007.88 1007.75 1007.63 1007.50 1007.38 1007.25 1007.11 1006.98 1006.84 1006.69 1006.52 1006.34 1006.13 1005.89
1017.35 1017.04 1016.70 1016.33 1015.94 1015.53 1015.10 1014.66 1014.22 1013.78 1013.35 1012.93 1012.51 1012.10 1011.70 1011.30 1010.90 1010.52 1010.15 1009.79 1009.46 1009.16 1008.90 1008.66 1008.47 1008.31 1008.17 1008.06 1007.96 1007.88 1007.79 1007.71 1007.63 1007.53 1007.44 1007.33 1007.23 1007.11 1007.00 1006.87 1006.74 1006.58 1006.41 1006.21
1016.84 1016.55 1016.21 1015.83 1015.42 1014.97 1014.50 1014.03 1013.57 1013.11 1012.67 1012.25 1011.85 1011.46 1011.09 1010.73 1010.37 1010.02 1009.68 1009.36 1009.06 1008.78 1008.54 1008.33 1008.17 1008.03 1007.93 1007.86 1007.80 1007.75 1007.70 1007.65 1007.59 1007.52 1007.44 1007.36 1007.26 1007.17 1007.07 1006.97 1006.86 1006.75 1006.62 1006.47
1016.30 1016.04 1015.72 1015.34 1014.91 1014.44 1013.95 1013.46 1012.97 1012.50 1012.06 1011.64 1011.25 1010.87 1010.52 1010.18 1009.84 1009.52 1009.20 1008.90 1008.63 1008.38 1008.16 1007.98 1007.84 1007.74 1007.68 1007.63 1007.61 1007.59 1007.58 1007.55 1007.51 1007.46 1007.39 1007.31 1007.23 1007.14 1007.06 1006.99 1006.92 1006.85 1006.77 1006.67
1015.74 1015.51 1015.21 1014.84 1014.41 1013.94 1013.44 1012.94 1012.44 1011.97 1011.52 1011.10 1010.71 1010.35 1010.01 1009.68 1009.36 1009.05 1008.75 1008.47 1008.21 1007.98 1007.78 1007.63 1007.51 1007.44 1007.40 1007.38 1007.38 1007.39 1007.40 1007.39 1007.37 1007.33 1007.27 1007.21 1007.14 1007.07 1007.01 1006.96 1006.92 1006.90 1006.87 1006.83
1015.15 1014.95 1014.66 1014.30 1013.89 1013.42 1012.93 1012.44 1011.95 1011.48 1011.04 1010.63 1010.26 1009.90 1009.57 1009.25 1008.94 1008.64 1008.35 1008.07 1007.82 1007.60 1007.42 1007.27 1007.17 1007.11 1007.09 1007.10 1007.12 1007.15 1007.18 1007.19 1007.18 1007.16 1007.12 1007.07 1007.01 1006.96 1006.93 1006.91 1006.91 1006.92 1006.95 1006.97
1014.51 1014.31 1014.04 1013.70 1013.30 1012.86 1012.39 1011.92 1011.46 1011.01 1010.59 1010.21 1009.85 1009.51 1009.19 1008.88 1008.58 1008.28 1007.99 1007.72 1007.47 1007.25 1007.07 1006.93 1006.83 1006.78 1006.77 1006.78 1006.82 1006.87 1006.91 1006.94 1006.96 1006.96 1006.94 1006.91 1006.88 1006.86 1006.85 1006.86 1006.89 1006.94 1007.01 1007.08
1013.78 1013.58 1013.32 1012.99 1012.62 1012.20 1011.77 1011.33 1010.91 1010.50 1010.12 1009.77 1009.44 1009.13 1008.83 1008.54 1008.25 1007.96 1007.67 1007.40 1007.15 1006.92 1006.73 1006.58 1006.48 1006.43 1006.41 1006.44 1006.48 1006.54 1006.61 1006.66 1006.71 1006.74 1006.75 1006.75 1006.75 1006.76 1006.78 1006.82 1006.88 1006.96 1007.05 1007.16
Thickness
5411 5414 5410 5409 5409 5398 5397 5404 5408 5419 5418 5438 5437 5432 5430 5428 5426 5426 5426 5425 5425 5423 5422 5420 5419 5419 5419 5419 5418 5418 5417 5417 5418 5418 5419 5419 5420 5420 5421 5422 5423 5423 5423 5423
5406 5407 5401 5403 5408 5403 5400 5400 5400 5407 5418 5432 5426 5423 5422 5421 5421 5421 5420 5420 5419 5418 5415 5414 5412 5412 5411 5410 5410 5410 5409 5409 5410 5410 5410 5410 5411 5411 5412 5412 5413 5413 5413 5413
5402 5395 5399 5407 5412 5406 5402 5401 5402 5410 5426 5426 5422 5421 5419 5418 5417 5416 5416 5414 5413 5411 5409 5408 5406 5405 5403 5403 5402 5402 5402 5402 5402 5402 5402 5401 5402 5403 5403 5402 5403 5402 5402 5403
5384 5388 5400 5422 5415 5409 5405 5405 5403 5410 5415 5415 5415 5415 5413 5413 5412 5411 5410 5408 5406 5404 5402 5401 5399 5398 5397 5396 5395 5395 5395 5395 5395 5395 5395 5394 5394 5394 5394 5393 5393 5393 5393 5393
5372 5375 5390 5411 5412 5402 5400 5407 5407 5405 5409 5407 5405 5405 5410 5413 5409 5406 5405 5402 5400 5398 5396 5394 5392 5391 5390 5389 5388 5388 5388 5388 5388 5388 5388 5387 5386 5386 5385 5385 5385 5385 5385 5385
5362 5376 5393 5415 5410 5401 5401 5404 5411 5403 5403 5399 5397 5400 5410 5408 5403 5400 5398 5396 5394 5392 5389 5387 5386 5384 5383 5382 5381 5381 5381 5381 5381 5381 5380 5380 5380 5379 5378 5377 5377 5377 5377 5377
5358 5363 5384 5402 5399 5398 5400 5410 5409 5400 5398 5392 5391 5397 5399 5397 5395 5393 5391 5389 5388 5385 5383 5381 5380 5378 5376 5376 5375 5375 5375 5375 5375 5375 5374 5374 5372 5371 5370 5370 5369 5369 5369 5370
5352 5360 5388 5398 5390 5394 5401 5402 5399 5395 5392 5388 5388 5388 5388 5388 5387 5385 5384 5382 5381 5378 5376 5375 5373 5372 5371 5370 5370 5369 5369 5369 5368 5368 5368 5367 5365 5364 5363 5363 5362 5362 5362 5362
5370 5390 5395 5389 5391 5394 5391 5391 5392 5389 5388 5384 5382 5382 5382 5380 5378 5377 5376 5375 5374 5372 5370 5369 5367 5366 5365 5366 5365 5364 5364 5363 5362 5361 5361 5360 5358 5358 5357 5357 5356 5356 5356 5355
5362 5379 5384 5383 5383 5385 5385 5384 5386 5384 5382 5379 5377 5377 5375 5373 5372 5371 5370 5368 5367 5366 5365 5363 5362 5361 5361 5360 5359 5359 5358 5357 5356 5355 5354 5353 5352 5353 5352 5351 5351 5351 5350 5350
5360 5374 5378 5387 5384 5384 5383 5380 5379 5377 5376 5374 5373 5372 5370 5369 5367 5365 5365 5363 5361 5360 5359 5358 5357 5356 5356 5355 5354 5353 5353 5351 5350 5349 5348 5347 5347 5346 5347 5346 5346 5346 5346 5345
5378 5383 5378 5386 5388 5384 5380 5379 5378 5374 5372 5371 5369 5368 5366 5364 5362 5360 5359 5357 5356 5355 5354 5353 5352 5352 5351 5350 5350 5349 5348 5347 5345 5344 5343 5342 5341 5341 5341 5341 5341 5341 5340 5340
5381 5382 5378 5381 5381 5379 5376 5375 5374 5371 5369 5368 5366 5364 5362 5360 5358 5356 5354 5353 5352 5351 5350 5349 5348 5348 5347 5347 5346 5345 5344 5342 5341 5340 5338 5337 5336 5335 5335 5335 5335 5335 5335 5335
5374 5373 5373 5376 5375 5374 5371 5369 5367 5365 5364 5363 5361 5359 5357 5355 5354 5352 5351 5350 5349 5347 5346 5345 5345 5345 5344 5343 5342 5341 5340 5339 5337 5335 5334 5332 5331 5330 5329 5328 5328 5328 5328 5329
5369 5368 5370 5371 5368 5367 5365 5362 5361 5360 5359 5358 5356 5355 5354 5353 5352 5350 5349 5347 5345 5344 5343 5342 5342 5342 5341 5340 5339 5338 5337 5335 5334 5332 5330 5329 5327 5326 5325 5323 5323 5322 5322 5323
5365 5363 5362 5362 5362 5361 5359 5358 5357 5358 5356 5354 5353 5352 5351 5350 5348 5347 5346 5344 5342 5342 5341 5340 5339 5339 5338 5336 5335 5334 5332 5332 5331 5329 5327 5325 5324 5322 5321 5320 5319 5318 5318 5318
5359 5360 5358 5358 5359 5357 5356 5356 5356 5355 5353 5352 5350 5349 5347 5345 5344 5344 5343 5341 5340 5339 5338 5337 5336 5335 5334 5333 5332 5330 5328 5327 5327 5325 5323 5322 5320 5319 5317 5316 5315 5315 5315 5315
5359 5360 5358 5357 5356 5355 5355 5354 5353 5351 5350 5349 5347 5345 5344 5343 5343 5342 5340 5338 5337 5336 5335 5335 5334 5332 5331 5329 5328 5326 5325 5323 5321 5320 5319 5318 5317 5315 5314 5312 5312 5311 5311 5312
5355 5355 5354 5354 5353 5353 5352 5351 5350 5348 5347 5345 5344 5342 5342 5341 5340 5338 5336 5335 5334 5333 5333 5332 5332 5330 5328 5326 5325 5323 5321 5319 5318 5316 5315 5315 5312 5311 5310 5309 5308 5308 5308 5309
5353 5352 5351 5350 5350 5349 5349 5348 5346 5344 5343 5342 5340 5340 5339 5338 5337 5335 5333 5332 5332 5331 5330 5329 5328 5326 5325 5323 5322 5320 5318 5316 5314 5313 5311 5310 5309 5307 5306 5306 5305 5306 5306 5306
5350 5349 5348 5346 5346 5345 5345 5344 5342 5341 5340 5339 5338 5337 5336 5335 5333 5332 5331 5330 5329 5328 5327 5327 5325 5323 5322 5320 5319 5317 5315 5313 5311 5309 5308 5306 5305 5305 5304 5303 5303 5303 5303 5303
5345 5344 5344 5343 5341 5341 5340 5339 5339 5338 5337 5336 5335 5334 5332 5331 5330 5328 5328 5327 5326 5325 5324 5322 5321 5320 5319 5318 5315 5313 5311 5309 5307 5306 5305 5304 5303 5302 5302 5302 5301 5301 5301 5301
5341 5340 5339 5339 5338 5337 5336 5336 5335 5335 5334 5333 5332 5331 5330 5329 5328 5327 5326 5324 5323 5323 5321 5319 5318 5318 5317 5314 5311 5309 5307 5306 5304 5303 5302 5301 5301 5300 5300 5300 5300 5300 5300 5300
5337 5336 5335 5334 5333 5332 5332 5332 5332 5331 5330 5330 5329 5329 5327 5326 5324 5323 5322 5322 5321 5319 5317 5316 5316 5314 5312 5309 5307 5306 5304 5303 5301 5300 5300 5300 5299 5299 5299 5299 5299 5299 5299 5299
5333 5331 5331 5330 5330 5330 5329 5328 5327 5326 5326 5325 5325 5325 5324 5323 5322 5320 5319 5317 5317 5316 5313 5312 5312 5310 5308 5305 5304 5302 5301 5300 5299 5299 5298 5298 5298 5298 5298 5298 5298 5298 5299 5299
5329 5328 5328 5327 5327 5326 5325 5324 5324 5323 5323 5322 5322 5322 5321 5320 5318 5317 5315 5314 5312 5311 5309 5308 5306 5305 5303 5302 5300 5299 5298 5297 5297 5296 5296 5296 5296 5296 5297 5297 5298 5298 5298 5299
5325 5324 5323 5323 5323 5322 5322 5322 5321 5321 5321 5320 5319 5318 5317 5316 5315 5313 5311 5310 5309 5307 5305 5304 5303 5302 5300 5299 5298 5297 5296 5296 5295 5295 5295 5295 5295 5295 5296 5296 5297 5297 5297 5298